Time,TemperatureF,DewpointF,PressureIn,WindDirection,WindDirectionDegrees,WindSpeedMPH,WindSpeedGustMPH,Humidity,HourlyPrecipIn,Conditions,Clouds,dailyrainin,SoftwareType,DateUTC
2013-01-13 00:07:00,59.2,58.0,29.93,ESE,108,0.0,0.0,97,0.00,,,0.00,weatherlink.com 1.10,2013-01-13 05:07:00,
2013-01-13 00:22:00,59.1,58.0,29.93,ESE,108,1.0,1.0,97,0.00,,,0.00,weatherlink.com 1.10,2013-01-13 05:22:00,
2013-01-13 00:37:00,59.1,58.0,29.93,ENE,78,0.0,2.0,97,0.00,,,0.00,weatherlink.com 1.10,2013-01-13 05:37:00,
2013-01-13 00:52:00,59.0,58.0,29.93,East,97,2.0,4.0,97,0.00,,,0.00,weatherlink.com 1.10,2013-01-13 05:52:00,
2013-01-13 01:07:00,58.9,58.0,29.94,East,97,0.0,1.0,97,0.00,,,0.00,weatherlink.com 1.10,2013-01-13 06:07:00,
2013-01-13 01:23:00,58.9,58.0,29.94,SE,138,1.0,1.0,98,0.00,,,0.00,weatherlink.com 1.10,2013-01-13 06:23:00,
2013-01-13 01:38:00,58.8,58.0,29.94,ESE,105,2.0,3.0,98,0.00,,,0.00,weatherlink.com 1.10,2013-01-13 06:38:00,
2013-01-13 01:53:00,58.8,58.0,29.94,SE,141,1.0,2.0,98,0.00,,,0.00,weatherlink.com 1.10,2013-01-13 06:53:00,
2013-01-13 02:09:00,58.8,58.0,29.94,NE,49,0.0,1.0,98,0.00,,,0.00,weatherlink.com 1.10,2013-01-13 07:09:00,
2013-01-13 02:23:00,58.8,58.0,29.94,East,97,1.0,2.0,98,0.00,,,0.00,weatherlink.com 1.10,2013-01-13 07:23:00,
2013-01-13 02:38:00,58.8,58.0,29.94,East,97,2.0,2.0,98,0.00,,,0.00,weatherlink.com 1.10,2013-01-13 07:38:00,
2013-01-13 02:53:00,58.7,58.0,29.94,ENE,65,1.0,2.0,98,0.00,,,0.00,weatherlink.com 1.10,2013-01-13 07:53:00,
2013-01-13 03:08:00,58.4,58.0,29.93,ENE,62,1.0,2.0,98,0.00,,,0.00,weatherlink.com 1.10,2013-01-13 08:08:00,
2013-01-13 03:24:00,58.0,58.0,29.93,NE,51,2.0,2.0,98,0.00,,,0.00,weatherlink.com 1.10,2013-01-13 08:24:00,
2013-01-13 03:39:00,57.7,57.0,29.93,NE,55,1.0,3.0,98,0.00,,,0.00,weatherlink.com 1.10,2013-01-13 08:39:00,
2013-01-13 03:54:00,57.5,57.0,29.93,NE,54,2.0,2.0,98,0.00,,,0.00,weatherlink.com 1.10,2013-01-13 08:54:00,
2013-01-13 04:09:00,57.7,57.0,29.93,East,87,1.0,4.0,98,0.00,,,0.00,weatherlink.com 1.10,2013-01-13 09:09:00,
2013-01-13 04:26:00,-999.0,-99.9,29.93,North,-999,-999.0,-999.0,-999,0.00,,,0.00,weatherlink.com 1.10,2013-01-13 09:26:00,
2013-01-13 04:39:00,-999.0,-99.9,29.93,North,-999,-999.0,-999.0,-999,0.00,,,0.00,weatherlink.com 1.10,2013-01-13 09:39:00,
2013-01-13 04:56:00,-999.0,-99.9,29.93,North,-999,-999.0,-999.0,-999,0.00,,,0.00,weatherlink.com 1.10,2013-01-13 09:56:00,
2013-01-13 05:10:00,-999.0,-99.9,29.93,North,-999,-999.0,-999.0,-999,0.00,,,0.00,weatherlink.com 1.10,2013-01-13 10:10:00,
2013-01-13 05:26:00,-999.0,-99.9,29.93,North,-999,-999.0,-999.0,-999,0.00,,,0.00,weatherlink.com 1.10,2013-01-13 10:26:00,
2013-01-13 05:40:00,-999.0,-99.9,29.93,North,-999,-999.0,-999.0,-999,0.00,,,0.00,weatherlink.com 1.10,2013-01-13 10:40:00,
2013-01-13 05:57:00,-999.0,-99.9,29.94,North,-999,-999.0,-999.0,-999,0.00,,,0.00,weatherlink.com 1.10,2013-01-13 10:57:00,
2013-01-13 06:10:00,-999.0,-99.9,29.94,North,-999,-999.0,-999.0,-999,0.00,,,0.00,weatherlink.com 1.10,2013-01-13 11:10:00,
2013-01-13 06:27:00,-999.0,-99.9,29.94,North,-999,-999.0,-999.0,-999,0.00,,,0.00,weatherlink.com 1.10,2013-01-13 11:27:00,
2013-01-13 06:41:00,-999.0,-99.9,29.94,North,-999,-999.0,-999.0,-999,0.00,,,0.00,weatherlink.com 1.10,2013-01-13 11:41:00,
2013-01-13 06:56:00,-999.0,-99.9,29.95,North,-999,-999.0,-999.0,-999,0.00,,,0.00,weatherlink.com 1.10,2013-01-13 11:56:00,
2013-01-13 07:11:00,-999.0,-99.9,29.95,North,-999,-999.0,-999.0,-999,0.00,,,0.00,weatherlink.com 1.10,2013-01-13 12:11:00,
2013-01-13 07:26:00,-999.0,-99.9,29.95,North,-999,-999.0,-999.0,-999,0.00,,,0.00,weatherlink.com 1.10,2013-01-13 12:26:00,
2013-01-13 07:42:00,55.1,55.0,29.96,NNW,333,1.0,2.0,98,0.00,,,0.00,weatherlink.com 1.10,2013-01-13 12:42:00,
2013-01-13 08:12:00,55.4,55.0,29.97,NNW,330,0.0,1.0,98,0.01,,,0.01,weatherlink.com 1.10,2013-01-13 13:12:00,
2013-01-13 08:27:00,55.8,55.0,29.98,NW,326,0.0,2.0,98,0.01,,,0.01,weatherlink.com 1.10,2013-01-13 13:27:00,
2013-01-13 08:42:00,56.4,56.0,29.98,NW,326,1.0,1.0,98,0.01,,,0.01,weatherlink.com 1.10,2013-01-13 13:42:00,
2013-01-13 08:57:00,57.5,57.0,29.98,NW,311,0.0,1.0,98,0.00,,,0.01,weatherlink.com 1.10,2013-01-13 13:57:00,
2013-01-13 09:12:00,58.3,58.0,29.98,SSW,207,0.0,2.0,98,0.00,,,0.01,weatherlink.com 1.10,2013-01-13 14:12:00,
2013-01-13 09:27:00,59.6,59.0,29.98,SE,124,0.0,1.0,98,0.00,,,0.01,weatherlink.com 1.10,2013-01-13 14:27:00,
2013-01-13 09:43:00,61.3,61.0,29.98,SSW,203,0.0,1.0,98,0.00,,,0.01,weatherlink.com 1.10,2013-01-13 14:43:00,
2013-01-13 09:58:00,62.7,62.0,29.98,West,259,0.0,3.0,98,0.00,,,0.01,weatherlink.com 1.10,2013-01-13 14:58:00,
2013-01-13 10:13:00,63.7,63.0,29.98,SSW,210,2.0,5.0,98,0.00,,,0.01,weatherlink.com 1.10,2013-01-13 15:13:00,
2013-01-13 10:28:00,64.5,64.0,29.98,SW,233,4.0,4.0,97,0.00,,,0.01,weatherlink.com 1.10,2013-01-13 15:28:00,
2013-01-13 10:43:00,65.1,63.0,29.98,WSW,257,2.0,6.0,94,0.00,,,0.01,weatherlink.com 1.10,2013-01-13 15:43:00,
2013-01-13 10:58:00,66.2,63.0,29.97,NW,314,4.0,6.0,90,0.00,,,0.01,weatherlink.com 1.10,2013-01-13 15:58:00,
2013-01-13 11:14:00,67.4,64.0,29.96,WSW,252,0.0,5.0,87,0.00,,,0.01,weatherlink.com 1.10,2013-01-13 16:14:00,
2013-01-13 11:29:00,68.9,63.0,29.95,WSW,254,4.0,6.0,82,0.00,,,0.01,weatherlink.com 1.10,2013-01-13 16:29:00,
2013-01-13 11:44:00,69.6,63.0,29.95,West,274,2.0,8.0,80,0.00,,,0.01,weatherlink.com 1.10,2013-01-13 16:44:00,
2013-01-13 11:59:00,70.7,63.0,29.94,WNW,287,5.0,9.0,77,0.00,,,0.01,weatherlink.com 1.10,2013-01-13 16:59:00,
2013-01-13 12:14:00,71.8,64.0,29.93,WSW,251,6.0,9.0,75,0.00,,,0.01,weatherlink.com 1.10,2013-01-13 17:14:00,
2013-01-13 12:30:00,72.8,64.0,29.93,West,276,5.0,10.0,74,0.00,,,0.01,weatherlink.com 1.10,2013-01-13 17:30:00,
2013-01-13 12:46:00,73.1,64.0,29.92,NW,315,6.0,9.0,73,0.00,,,0.01,weatherlink.com 1.10,2013-01-13 17:46:00,
2013-01-13 13:01:00,74.4,64.0,29.92,WNW,301,4.0,9.0,71,0.00,,,0.01,weatherlink.com 1.10,2013-01-13 18:01:00,
2013-01-13 13:16:00,75.2,65.0,29.91,West,276,6.0,10.0,70,0.00,,,0.01,weatherlink.com 1.10,2013-01-13 18:16:00,
2013-01-13 13:30:00,74.8,65.0,29.91,SSE,159,2.0,13.0,71,0.00,,,0.01,weatherlink.com 1.10,2013-01-13 18:30:00,
2013-01-13 13:46:00,75.9,64.0,29.90,WSW,239,7.0,12.0,67,0.00,,,0.01,weatherlink.com 1.10,2013-01-13 18:46:00,
2013-01-13 14:01:00,76.3,64.0,29.90,West,262,8.0,9.0,66,0.00,,,0.01,weatherlink.com 1.10,2013-01-13 19:01:00,
2013-01-13 14:16:00,75.7,64.0,29.90,SW,233,5.0,7.0,67,0.00,,,0.01,weatherlink.com 1.10,2013-01-13 19:16:00,
2013-01-13 14:31:00,75.0,63.0,29.89,WSW,243,6.0,8.0,67,0.00,,,0.01,weatherlink.com 1.10,2013-01-13 19:31:00,
2013-01-13 14:46:00,74.2,64.0,29.91,SW,218,6.0,10.0,70,0.00,,,0.01,weatherlink.com 1.10,2013-01-13 19:46:00,
2013-01-13 15:01:00,72.5,64.0,29.92,SW,217,5.0,13.0,75,0.00,,,0.01,weatherlink.com 1.10,2013-01-13 20:01:00,
2013-01-13 15:16:00,71.3,63.0,29.92,SW,218,10.0,11.0,76,0.00,,,0.01,weatherlink.com 1.10,2013-01-13 20:16:00,
2013-01-13 15:31:00,70.1,63.0,29.93,SW,219,8.0,12.0,78,0.00,,,0.01,weatherlink.com 1.10,2013-01-13 20:31:00,
2013-01-13 15:47:00,69.0,63.0,29.92,SSW,210,7.0,11.0,80,0.00,,,0.01,weatherlink.com 1.10,2013-01-13 20:47:00,
2013-01-13 16:02:00,67.6,62.0,29.93,SSW,207,5.0,9.0,82,0.00,,,0.01,weatherlink.com 1.10,2013-01-13 21:02:00,
2013-01-13 16:17:00,66.7,62.0,29.93,SW,229,5.0,9.0,84,0.00,,,0.01,weatherlink.com 1.10,2013-01-13 21:17:00,
2013-01-13 16:32:00,65.5,61.0,29.93,SSW,207,5.0,9.0,85,0.00,,,0.01,weatherlink.com 1.10,2013-01-13 21:32:00,
2013-01-13 16:48:00,64.7,61.0,29.94,SSW,208,6.0,8.0,87,0.00,,,0.01,weatherlink.com 1.10,2013-01-13 21:48:00,
2013-01-13 17:02:00,64.3,61.0,29.94,SW,219,4.0,7.0,88,0.00,,,0.01,weatherlink.com 1.10,2013-01-13 22:02:00,
2013-01-13 17:17:00,64.0,60.0,29.94,SW,221,4.0,6.0,88,0.00,,,0.01,weatherlink.com 1.10,2013-01-13 22:17:00,
2013-01-13 17:33:00,63.5,61.0,29.95,SSW,194,5.0,9.0,90,0.00,,,0.01,weatherlink.com 1.10,2013-01-13 22:33:00,
2013-01-13 17:47:00,63.2,60.0,29.94,SSW,212,4.0,8.0,90,0.00,,,0.01,weatherlink.com 1.10,2013-01-13 22:47:00,
2013-01-13 18:03:00,62.8,60.0,29.95,SSW,194,3.0,8.0,91,0.00,,,0.01,weatherlink.com 1.10,2013-01-13 23:03:00,
2013-01-13 18:18:00,62.4,60.0,29.95,SSW,207,5.0,7.0,92,0.00,,,0.01,weatherlink.com 1.10,2013-01-13 23:18:00,
2013-01-13 18:33:00,62.1,60.0,29.94,SSW,200,4.0,6.0,92,0.00,,,0.01,weatherlink.com 1.10,2013-01-13 23:33:00,
2013-01-13 18:48:00,61.8,60.0,29.93,SSW,210,4.0,5.0,92,0.00,,,0.01,weatherlink.com 1.10,2013-01-13 23:48:00,
2013-01-13 19:03:00,61.7,59.0,29.93,SW,214,4.0,7.0,92,0.00,,,0.01,weatherlink.com 1.10,2013-01-14 00:03:00,
2013-01-13 19:18:00,61.5,59.0,29.93,SW,217,3.0,7.0,92,0.00,,,0.01,weatherlink.com 1.10,2013-01-14 00:18:00,
2013-01-13 19:33:00,61.3,59.0,29.93,SW,219,4.0,8.0,93,0.00,,,0.01,weatherlink.com 1.10,2013-01-14 00:33:00,
2013-01-13 19:49:00,61.1,59.0,29.93,SW,222,4.0,5.0,93,0.00,,,0.01,weatherlink.com 1.10,2013-01-14 00:49:00,
2013-01-13 20:04:00,60.8,59.0,29.92,SW,229,5.0,6.0,94,0.00,,,0.01,weatherlink.com 1.10,2013-01-14 01:04:00,
2013-01-13 20:19:00,60.8,59.0,29.92,SSW,207,4.0,7.0,94,0.00,,,0.01,weatherlink.com 1.10,2013-01-14 01:19:00,
2013-01-13 20:34:00,60.7,59.0,29.92,SSW,194,5.0,7.0,94,0.00,,,0.01,weatherlink.com 1.10,2013-01-14 01:34:00,
2013-01-13 20:49:00,60.6,59.0,29.91,SSW,204,4.0,6.0,95,0.00,,,0.01,weatherlink.com 1.10,2013-01-14 01:49:00,
2013-01-13 21:04:00,60.3,59.0,29.92,SSW,208,3.0,5.0,95,0.00,,,0.01,weatherlink.com 1.10,2013-01-14 02:04:00,
2013-01-13 21:19:00,60.6,60.0,29.92,SW,217,6.0,8.0,96,0.00,,,0.01,weatherlink.com 1.10,2013-01-14 02:19:00,
2013-01-13 21:36:00,61.2,60.0,29.92,SSW,208,5.0,8.0,96,0.00,,,0.01,weatherlink.com 1.10,2013-01-14 02:36:00,
2013-01-13 21:50:00,62.1,61.0,29.93,SW,226,5.0,7.0,96,0.00,,,0.01,weatherlink.com 1.10,2013-01-14 02:50:00,
2013-01-13 22:06:00,62.9,61.0,29.93,SSW,211,3.0,6.0,94,0.00,,,0.01,weatherlink.com 1.10,2013-01-14 03:06:00,
2013-01-13 22:20:00,63.3,62.0,29.94,SW,217,3.0,6.0,94,0.00,,,0.01,weatherlink.com 1.10,2013-01-14 03:20:00,
2013-01-13 22:36:00,63.9,62.0,29.95,SW,224,3.0,6.0,93,0.00,,,0.01,weatherlink.com 1.10,2013-01-14 03:36:00,
2013-01-13 22:50:00,64.1,62.0,29.95,SW,224,3.0,5.0,93,0.00,,,0.01,weatherlink.com 1.10,2013-01-14 03:50:00,
2013-01-13 23:06:00,64.6,62.0,29.95,SW,214,4.0,5.0,91,0.00,,,0.01,weatherlink.com 1.10,2013-01-14 04:06:00,
2013-01-13 23:20:00,64.5,62.0,29.96,SW,219,3.0,8.0,92,0.00,,,0.01,weatherlink.com 1.10,2013-01-14 04:20:00,
2013-01-13 23:38:00,64.5,62.0,29.96,SW,214,3.0,7.0,92,0.00,,,0.01,weatherlink.com 1.10,2013-01-14 04:38:00,
2013-01-13 23:50:00,64.3,62.0,29.96,SSW,197,2.0,4.0,91,0.00,,,0.01,weatherlink.com 1.10,2013-01-14 04:50:00,